Regional Weather Roundup
Issued by NWS

Home | Current Version | Previous Version | Text Only | Print | Product List | Glossary Off
Versions: 1 2 3 4 5 6 7 8 9 10 11 12 13 14 15 16 17 18 19 20 21 22 23 24 25 26 27 28 29 30 31 32 33 34 35 36 37 38 39 40 41 42 43 44 45 46 47 48 49 50

000
ASUS43 KOAX 191502
RWRNE

WEATHER ROUNDUP FOR NEBRASKA
NATIONAL WEATHER SERVICE OMAHA NE
1000 AM CDT TUE SEP 19 2017

NOTES: SATELLITE DATA IS BEING USED TO AUGMENT CLOUD COVER ABOVE
       12000 FEET.
       "FAIR" INDICATES FEW OR NO CLOUDS BELOW 12,000 FEET WITH NO
       SIGNIFICANT WEATHER AND/OR OBSTRUCTIONS TO VISIBILITY.


NEZ001>004-019>022-054>056-191600-
NEBRASKA PANHANDLE

CITY           SKY/WX    TMP DP  RH WIND       PRES   REMARKS
SCOTTSBLUFF    CLOUDY    55  52  89 SE6       29.64F
ALLIANCE       CLOUDY    57  54  89 S7        29.63S
CHADRON        CLOUDY    62  46  55 W9        29.57F
GORDON         FAIR      63  56  79 CALM      29.61F
KIMBALL        CLOUDY    54  47  76 W6        29.70S
SIDNEY         CLOUDY    57  49  74 W5        29.68S
$$

NEZ057>060-069>072-079>082-191600-
SOUTHWEST NEBRASKA

CITY           SKY/WX    TMP DP  RH WIND       PRES   REMARKS
NORTH PLATTE   CLOUDY    70  64  81 S16       29.64F
IMPERIAL       CLOUDY    68  55  63 S10       29.65F
LEXINGTON      CLOUDY    72  65  77 S16G24    29.68F
MCCOOK           N/A     72  64  76 S10       29.67S
OGALLALA       CLOUDY    66  58  75 SW7       29.65F
$$

NEZ005>010-023>029-035>040-094-191600-
NORTH CENTRAL NEBRASKA

CITY           SKY/WX    TMP DP  RH WIND       PRES   REMARKS
VALENTINE      CLOUDY    72  63  73 S13G25    29.60F
AINSWORTH      CLOUDY    68  64  88 S18G24    29.63F
BROKEN BOW     CLOUDY    69  64  84 S14       29.69S
O`NEILL        PTSUNNY   67  66  96 SE15      29.69F
ORD            CLOUDY    66  63  90 SE10      29.69S
THEDFORD       CLOUDY    68  64  85 S16G23    29.65F
$$

NEZ041-046>049-061>064-073>077-083>087-191600-
SOUTH CENTRAL NEBRASKA

CITY           SKY/WX    TMP DP  RH WIND       PRES   REMARKS
GRAND ISLAND   SUNNY     72  67  84 S16G25    29.72F
AURORA         SUNNY     71  68  89 SE14      29.73
HASTINGS       SUNNY     72  64  76 S16G24    29.73F
HEBRON         SUNNY     77  66  68 S15G23    29.76F
HOLDREGE       SUNNY     70  64  79 S15G28    29.70S
KEARNEY        SUNNY     72  66  81 S18       29.71S
YORK           SUNNY     73  68  83 S13       29.75F
$$

NEZ011>018-030>034-042>045-191600-
NORTHEAST NEBRASKA

CITY           SKY/WX    TMP DP  RH WIND       PRES   REMARKS
NORFOLK        CLOUDY    69  67  93 SE12      29.75S
BLAIR          CLOUDY    70  67  91 SE9G16    29.81F FOG
COLUMBUS       SUNNY     72  67  84 SE10G17   29.76F
FREMONT        CLOUDY    72  68  88 SE13      29.79F
TEKAMAH        CLOUDY    70  66  87 SE12      29.79F
WAYNE          CLOUDY    69  67  91 SE14G20   29.77S
$$

NEZ050>053-065>068-078-088>093-191600-
SOUTHEAST NEBRASKA

CITY           SKY/WX    TMP DP  RH WIND       PRES   REMARKS
LINCOLN        SUNNY     74  66  76 SE16      29.79F
OMAHA EPPLEY   CLOUDY    71  66  84 SE14      29.82F
BEATRICE       SUNNY     76  67  75 S14       29.79F
FALLS CITY     SUNNY     74  68  81 S16       29.84S
NEBRASKA CITY  MOSUNNY   72  72 100 S10G16    29.84R
PLATTSMOUTH    PTSUNNY   70  69  95 SE10G16   29.83F
$$

NEZ044-045-051>053-067-191600-
OMAHA AREA

CITY           SKY/WX    TMP DP  RH WIND       PRES   REMARKS
OMAHA EPPLEY   CLOUDY    71  66  84 SE14      29.82F
BLAIR          CLOUDY    70  67  91 SE9G16    29.81F FOG
FREMONT        CLOUDY    72  68  88 SE13      29.79F
MILLARD        CLOUDY    71  68  90 SE13      29.81F FOG
OFFUTT AFB     PTSUNNY   72  67  84 SE13      29.81F
PLATTSMOUTH    PTSUNNY   70  69  95 SE10G16   29.83F
WAHOO          CLOUDY    70  69  95 SE10G20   29.79F FOG
$$




USA.gov is the U.S. government's official web portal to all federal, state and local government web resources and services.